www.pogodaiklimat.ru

Погода и климат >> Архив погоды >> Россия >> Краснодарский край >> Краснодар


АРХИВ ПОГОДЫ в Краснодаре

Время (UTC), дата Ветер
(напр.,м/с)
 
Видим.   Явления Облачность Т
(С)
Тd
(С)
f
(%)
Тe
(С)
Тes
(С)
Комфортность P
(гПа)
Po
(гПа)
Тmin
(С)
Tmax
(С)
R
(мм)
R24
(мм)
S
(см)
09 20.05 ЮВ 3 10 км гроза без осадков {ливн. осадки} 10/10 600 м
[Cb cap]
+17.9 +14.9 83 +18 +18 прохладно 1016.7 1012.6
12 20.05 ЮВ 3 10 км {гроза, ливн. осадки} 8/3 1000 м
[Sc Ac trans Ci fib]
+21.7 +16.0 70 +25 +30 комфорт 1016.4 1012.3
15 20.05 ЮВ 1 10 км 3/3 1000 м
[Sc]
+23.0 +15.7 63 +27 +29 душно 1015.4 1011.4 +23.7 0.6
18 20.05 штиль 0 10 км 3/0
[Ac trans]
+18.1 +15.7 86 +18 +18 по сезону 1016.4 1012.3
21 20.05 СВ 1 10 км ясно +17.1 +15.3 89 +18 +18 тепло 1016.1 1012.0
00 21.05 В 2 10 км ясно +14.1 +12.8 92 +14 +14 по сезону 1015.8 1011.6
03 21.05 СВ 3 10 км ясно +15.4 +14.1 92 +15 +15 по сезону 1016.4 1012.3 +13.2
06 21.05 СВ 3 10 км ясно +21.0 +14.2 65 +24 +33 комфорт 1017.2 1013.1
09 21.05 В 6 10 км 3/1 600 м
[Cu hum Ac trans Ci fib]
+24.9 +14.5 52 +27 +33 жарко 1016.7 1012.7
12 21.05 В 5 10 км 4/3 600 м
[Cu hum Ac trans Ci fib]
+26.9 +12.5 41 +28 +33 жарко 1016.2 1012.2
15 21.05 В 2 10 км 8/3 1000 м
[Cu hum Ac trans Ci fib]
+25.9 +14.3 49 +28 +29 жарко 1015.0 1011.0 +27.2
18 21.05 С 2 10 км 10/9 600 м
[Cu hum Ac trans]
+22.2 +13.7 59 +25 +25 комфорт 1013.8 1009.8
21 21.05 СВ 2 10 км 10/10 1000 м
[Cu hum]
+19.3 +13.6 70 +21 +21 комфорт 1013.2 1009.1
00 22.05 ЮЗ 2 10 км 8/6 600 м
[Sc diur, vesp Ac trans]
+17.1 +15.5 90 +17 +17 тепло 1013.1 1009.0
03 22.05 ЮЗ 1 10 км дымка 9/8 1000 м
[Sc diur, vesp Ac trans]
+17.2 +16.1 93 +18 +18 тепло 1013.3 1009.2 +14.5
06 22.05 Ю 5 10 км 10/8 200 м
[Cb calv Ac As]
+20.5 +14.2 67 +23 +23 комфорт 1013.6 1009.5
09 22.05 СЗ 1 10 км в посл. час ливневой дождь 10/10 1000 м
[Sc diur, vesp]
+19.7 +14.8 73 +23 +23 комфорт 1013.9 1009.8
12 22.05 Ю 4 10 км {ливн. осадки} 8/8 1000 м
[Cb calv]
+22.1 +14.4 62 +25 +27 комфорт 1013.9 1009.9
15 22.05 Ю 7 10 км 5/5 1000 м
[Cu hum]
+22.8 +13.8 57 +26 +26 жарко 1012.9 1008.9 +24.1 0.8
18 22.05 Ю 5 10 км зарница 3/3 1000 м
[Cb calv]
+18.5 +14.0 75 +19 +19 по сезону 1013.3 1009.2
21 22.05 ЮЗ 4 10 км 4/0
[Ac trans]
+17.6 +12.7 73 +17 +17 по сезону 1013.6 1009.5
00 23.05 З 2 10 км 8/0
[Ac trans]
+17.4 +12.3 72 +18 +18 тепло 1013.1 1009.0
03 23.05 ЮЗ 1 10 км 3/3 1000 м
[Sc diur, vesp]
+15.7 +13.5 87 +16 +17 по сезону 1012.8 1008.7 +13.7
06 23.05 Ю 6 10 км 4/4 1000 м
[Cb cap]
+21.8 +11.8 53 +24 +26 комфорт 1012.2 1008.2
09 23.05 Ю 7 10 км 5/5 1000 м
[Cb cap]
+24.7 +10.5 41 +26 +28 жарко 1011.8 1007.8
12 23.05 ЮЗ 9-13
{14}
10 км в посл. час ливневой дождь 6/6 1000 м
[Cb cap]
+24.1 +11.0 44 +25 +26 комфорт 1011.4 1007.4
15 23.05 Ю 7-11
{14}
10 км 4/4 1000 м
[Cb cap]
+22.8 +11.5 49 +25 +26 комфорт 1011.2 1007.2 +25.6 0.4
18 23.05 ЮЗ 5 10 км ясно +19.0 +13.2 69 +20 +20 тепло 1012.1 1008.0
21 23.05 Ю 4 10 км ясно +17.5 +13.4 77 +17 +17 по сезону 1011.6 1007.5
00 24.05 ЮЗ 3 10 км ясно +16.9 +13.0 78 +17 +17 тепло 1011.2 1007.1
03 24.05 ЮЗ 3 10 км ясно +18.1 +13.7 75 +18 +19 тепло 1010.9 1006.8 +16.3
06 24.05 Ю 5 10 км 3/0
[Ci fib]
+22.6 +14.5 60 +26 +31 жарко 1010.6 1006.6
09 24.05 ЮЗ 4 10 км 9/8 1500 м
[Sc Ac As Ci sp]
+25.8 +11.9 42 +27 +29 жарко 1010.4 1006.4
12 24.05 Ю 3 10 км 8/6 1500 м
[Sc Ac As Ci fib]
+27.0 +9.3 33 +27 +31 жарко 1009.3 1005.3
15 24.05 ЮВ 3 10 км 8/3 1500 м
[Sc Ac As Ci fib]
+25.8 +10.4 38 +27 +28 жарко 1008.5 1004.5 +27.6
18 24.05 СВ 2 10 км 10/8 1000 м
[Sc Ac As Ci sp]
+21.3 +13.4 61 +24 +24 комфорт 1008.3 1004.3
21 24.05 В 2 10 км 8/8 1000 м
[Sc]
+19.7 +14.3 71 +22 +22 комфорт 1008.1 1004.1
00 25.05 ЮВ 1 10 км 3/0
[Ci fib]
+17.7 +13.7 77 +19 +19 тепло 1007.1 1003.0
03 25.05 В 2 10 км 9/3 1000 м
[Sc diur, vesp Ac trans Ci]
+18.0 +14.3 79 +19 +19 тепло 1006.7 1002.6 +15.1
06 25.05 ЮЗ 1 4000 м слаб. ливневой дождь 10/10 600 м
[Cb cap]
+20.4 +16.1 76 +24 +24 комфорт 1006.5 1002.5
09 25.05 З 4 2000 м ливневой дождь 10/10 600 м
[Cb cap]
+17.3 +16.2 93 +17 +17 холодно 1008.3 1004.2
12 25.05 ЮВ 2 10 км {гроза} 9/8 600 м
[Cb cap Ac trans]
+18.0 +16.6 92 +19 +20 холодно 1007.6 1003.5
15 25.05 ЮЗ 4
{15}
10 км {гроза} 9/8 600 м
[Cb cap Ac trans]
+17.5 +14.8 84 +17 +17 холодно 1009.4 1005.3 +21.1 22
18 25.05 Ю 3 10 км {ливн. осадки} 9/8 600 м
[Sc diur, vesp Ac trans]
+16.3 +13.3 82 +16 +16 прохладно 1010.8 1006.7
21 25.05 Ю 4 4000 м слаб. ливневой дождь 10/10 600 м
[Cb cap]
+16.6 +14.1 85 +16 +16 по сезону 1011.6 1007.5
00 26.05 Ю 5 10 км {дождь} 10/10 600 м
[Cb cap]
+16.4 +13.5 83 +15 +15 по сезону 1011.1 1007.0
03 26.05 ЮЗ 4 4000 м слаб. ливневой дождь 9/8 600 м
[Cb cap Ac trans]
+16.0 +13.9 87 +15 +15 по сезону 1012.3 1008.2 +15.5 2
06 26.05 Ю 8 10 км {ливн. осадки} 10/4 1000 м
[Cb cap Ac trans Ci fib]
+19.6 +14.4 72 +21 +21 комфорт 1012.8 1008.7
09 26.05 Ю 9-11
{13}
10 км 9/5 1000 м
[Cb cap Ac trans]
+22.3 +13.8 59 +25 +26 комфорт 1013.2 1009.2
12 26.05 Ю 10-13
{14}
10 км 10/5 1000 м
[Cu med, cong Ci fib]
+22.2 +12.8 55 +25 +25 комфорт 1013.3 1009.3
15 26.05 Ю 10-14
{15}
10 км 10/5 1000 м
[Sc diur, vesp Ac trans Ci fib]
+20.1 +12.6 62 +21 +21 комфорт 1014.3 1010.2 +22.8 0.7
18 26.05 Ю 6
{13}
10 км 9/3 1000 м
[Sc Ac trans]
+18.3 +13.0 71 +18 +18 по сезону 1015.4 1011.3
21 26.05 Ю 4 10 км 10/5 1000 м
[Sc Ac und]
+18.1 +13.4 74 +18 +18 по сезону 1015.8 1011.7
00 27.05 Ю 5 10 км 10/6 1000 м
[Sc Ac und]
+18.5 +13.2 71 +19 +19 тепло 1016.3 1012.2
03 27.05 ЮЗ 4 10 км 8/3 1000 м
[Sc Ac trans]
+18.3 +13.7 75 +19 +19 тепло 1017.0 1012.9 +17.5
06 27.05 ЮЗ 7 10 км 6/3 1000 м
[Cu med, cong Ac cast]
+21.4 +14.1 63 +24 +26 комфорт 1018.2 1014.1

 

Местоположение метеостанции Краснодар (Краснодарский край, Россия): широта 45.05 долгота 39.03 высота над уровнем моря 29 м.

В архиве по умолчанию представлена погода в Краснодаре за последнюю неделю. Архивные данные за месяц целиком и за предыдущие месяцы, начиная с января 2011 года, Вы можете получить, выбрав интересующий диапазон дат из раскрывающегося списка и нажав кнопку "Ввод!".


*Определитесь, кто Вы:
робот инопланетянин человек

Внимание! Время в таблицах - всемирное. Для получения местного времени необходимо прибавить поправку, которая равна 3 ч.

Смотрите также архив погоды в соседних городах и на ближайших метеорологических станциях:

Погода в Горячем Ключе (Краснодарский край, Россия) (47 км)
Погода в Усть-Лабинске (Краснодарский край, Россия) (58 км)
Погода в Кореновске (Краснодарский край, Россия) (59 км)
Погода в Тимашевске (Краснодарский край, Россия) (65 км)
Погода в Славянске-на-Кубани (Краснодарский край, Россия) (76 км)
Погода в Белореченске (Краснодарский край, Россия) (76 км)
Погода в Крымске (Краснодарский край, Россия) (82 км)
Погода в Джубге (Краснодарский край, Россия) (84 км)
Погода в Горном (Краснодарский край, Россия) (88 км)
Погода в Геленджике (Краснодарский край, Россия) (92 км)

Пояснения к столбцам:

Ветер - указаны скорость ветра в м/с - средняя за 10 мин, порывы в срок и между сроками (в фигурных скобках) и направление, откуда дует ветер: С - северный, СВ - северо-восточный, В - восточный, ЮВ - юго-восточный, Ю - южный, ЮЗ - юго-западный, З - западный, СЗ - северо-западный.
Видимость - горизонтальная дальность видимости в метрах или километрах. При видимости от 1 до 10 км при отсутствии осадков обычно наблюдается дымка, при ухудшении видимости до 1 км и менее - туман. В сухую погоду видимость может ухудшаться дымом, пылью или мглою.
Явления - указаны атмосферные явления, наблюдавшиеся в срок или в последний час перед сроком; фигурными скобками обозначены явления, наблюдавшиеся между сроками (за 1-3 часа до срока); квадратными скобками обозначены град или гололедные отложения с указанием их диаметра в мм.
Облачность - указаны через наклонную черту общая и нижняя облачность в баллах и высота нижней границы облаков в метрах; квадратными скобками обозначены формы облаков: Ci - перистые, Cs - перисто-слоистые, Cc - перисто-кучевые, Ac - высококучевые, As - высокослоистые, Sc - слоисто-кучевые, Ns - слоисто-дождевые, Cu - кучевые, Cb - кучево-дождевые. Подробнее классификацию облаков см. в Атласе облаков (PDF).
T - Температура воздуха - температура, измеренная на высоте 2 м над землей.
Td - Температура точки росы - температура, при понижении до которой содержащийся в воздухе водяной пар достигнет насыщения.
f - Относительная влажность воздуха - влажноcть воздуха, измеренная на высоте 2 м над землей.
Te - Эффективная температура - температура, которую ощущает одетый по сезону человек в тени. Характеристика душности погоды. При расчете учитывается влияние влажности воздуха и скорости ветра на теплоощущения человека.
Tes - Эффективная температура на солнце - температура, которую ощущает человек, с поправкой на солнечный нагрев. Характеристика знойности погоды. Зависит от высоты солнца над горизонтом, облачности и скорости ветра. Ночью, в пасмурную погоду, а также при ветре 12 м/с и более поправка равна нулю.
P - Атмосферное давление - приведенное к уровню моря атмосферное давление.
Po - Атмосферное давление - измеренное на уровне метеостанции атмосферное давление.
Tmin - Минимальная температура - минимум температуры воздуха на высоте 2 м над землей.
Tmax - Максимальная температура - максимум температуры воздуха на высоте 2 м над землей.
R - Количество осадков - Количество выпавших осадков за период времени, мм. При наведении курсора мыши на число - период времени, за который выпало указанное количество осадков.
R24 - Количество осадков - Количество выпавших осадков за 24 часа, мм.
S - Снежный покров - Высота снежного покрова, см. При наведении курсора мыши на число - состояние снежного покрова и степень покрытия местности в баллах.